Weather History for KRRL - February, 2013

Change the Weather History Date:

Thursday, February 21, 2013

  Actual Average Record
Temperature  
Mean Temperature 10 °F -  
Max Temperature 28 °F 32 °F 55 °F (1930)
Min Temperature -9 °F 8 °F -35 °F (1929)
Degree Days  
Heating Degree Days 56    
Moisture  
Dew Point 5 °F    
Average Humidity 72    
Maximum Humidity 92    
Minimum Humidity 51    
Precipitation  
Precipitation 0.00 in - - ()
Sea Level Pressure  
Sea Level Pressure 30.31 in    
Wind  
Wind Speed 2 mph (East)    
Max Wind Speed 17 mph    
Max Gust Speed 24 mph    
Visibility 10 miles    
Events      
Averages and records for this station are not official NWS values.
T = Trace of Precipitation, MM = Missing Value Source: NWS Daily Summary

Daily Weather History Graph

Daily Weather History Graph

Search for Another Location

Airport or City:

Trip Planner

Search our weather history database for the weather conditions in past years. The results will help you decide how hot, cold, wet, or windy it might be!

Date:

Astronomy

Feb. 21, 2013 Rise Set
Actual Time 6:50 AM CST 5:35 PM CST
Civil Twilight 6:20 AM CST 6:05 PM CST
Nautical Twilight 5:45 AM CST 6:39 PM CST
Astronomical Twilight 5:11 AM CST 7:13 PM CST
Moon 1:43 PM CST (2/21) 4:02 AM CST (2/21)
Length of Visible Light 11h 45m
Length of Day
10h 45m
Waxing Gibbous, 84% of the Moon is Illuminated
Feb 21
Waxing Gibbous
Feb 25
Full
Mar 4
Last Quarter
Mar 11
New
Mar 19
First Quarter

Hourly Weather History & Observations

Time (CST) Temp. Windchill Dew Point Humidity Pressure Visibility Wind Dir Wind Speed Gust Speed Precip Events Conditions
12:15 AM 5.0 °F - -0.4 °F 78% 30.35 in 10.0 mi Calm Calm - N/A   Clear
12:35 AM 1.4 °F - -0.4 °F 92% 30.36 in 10.0 mi Calm Calm - N/A   Clear
12:55 AM 1.4 °F - -2.2 °F 85% 30.37 in 10.0 mi Calm Calm - N/A   Clear
1:15 AM 1.4 °F - -2.2 °F 85% 30.37 in 10.0 mi Calm Calm - N/A   Clear
1:35 AM -0.4 °F - -4.0 °F 85% 30.38 in 10.0 mi Calm Calm - N/A   Clear
1:55 AM -0.4 °F - -4.0 °F 85% 30.39 in 10.0 mi Calm Calm - N/A   Clear
2:15 AM -2.2 °F - -5.8 °F 85% 30.39 in 10.0 mi Calm Calm - N/A   Clear
2:35 AM -4.0 °F - -5.8 °F 92% 30.38 in 10.0 mi Calm Calm - N/A   Clear
2:55 AM -5.8 °F - -7.6 °F 92% 30.38 in 10.0 mi Calm Calm - N/A   Clear
3:15 AM -7.6 °F - -11.2 °F 84% 30.38 in 10.0 mi Calm Calm - N/A   Clear
3:35 AM -5.8 °F - -9.4 °F 84% 30.39 in 10.0 mi Calm Calm - N/A   Clear
3:55 AM -5.8 °F - -9.4 °F 84% 30.40 in 10.0 mi Calm Calm - N/A   Clear
4:15 AM -7.6 °F - -13.0 °F 77% 30.41 in 10.0 mi Calm Calm - N/A   Clear
4:35 AM -7.6 °F - -13.0 °F 77% 30.42 in 10.0 mi Calm Calm - N/A   Clear
5:15 AM -9.4 °F - -14.8 °F 77% 30.42 in 10.0 mi Calm Calm - N/A   Clear
5:35 AM -7.6 °F - -13.0 °F 77% 30.42 in 10.0 mi Calm Calm - N/A   Clear
5:55 AM -7.6 °F -16.5 °F -11.2 °F 84% 30.42 in 10.0 mi NE 3.5 mph - N/A   Clear
6:15 AM -5.8 °F -18.4 °F -9.4 °F 84% 30.41 in 10.0 mi NE 5.8 mph - N/A   Clear
6:35 AM -5.8 °F -19.9 °F -9.4 °F 84% 30.39 in 10.0 mi NE 6.9 mph - N/A   Clear
6:55 AM -4.0 °F -16.3 °F -7.6 °F 85% 30.37 in 10.0 mi NE 5.8 mph - N/A   Scattered Clouds
7:15 AM -0.4 °F - -5.8 °F 78% 30.35 in 10.0 mi Calm Calm - N/A   Overcast
7:35 AM -0.4 °F - -4.0 °F 85% 30.33 in 10.0 mi Calm Calm - N/A   Mostly Cloudy
7:55 AM 1.4 °F - -4.0 °F 78% 30.33 in 10.0 mi Calm Calm - N/A   Scattered Clouds
8:15 AM 1.4 °F - -4.0 °F 78% 30.41 in 10.0 mi Calm Calm - N/A   Clear
8:35 AM 3.2 °F -4.2 °F -0.4 °F 85% 30.43 in 10.0 mi WSW 3.5 mph - N/A   Clear
8:55 AM 3.2 °F -4.2 °F -0.4 °F 85% 30.44 in 10.0 mi West 3.5 mph - N/A   Clear
9:15 AM 5.0 °F - -0.4 °F 78% 30.42 in 10.0 mi Calm Calm - N/A   Clear
9:35 AM 6.8 °F - 1.4 °F 79% 30.41 in 10.0 mi Calm Calm - N/A   Clear
9:55 AM 8.6 °F - 3.2 °F 79% 30.41 in 10.0 mi Calm Calm - N/A   Clear
10:15 AM 10.4 °F - 3.2 °F 73% 30.41 in 10.0 mi Calm Calm - N/A   Clear
10:35 AM 12.2 °F - 3.2 °F 67% 30.39 in 10.0 mi Calm Calm - N/A   Clear
10:55 AM 14.0 °F - 5.0 °F 67% 30.37 in 10.0 mi Calm Calm - N/A   Clear
11:15 AM 17.6 °F - 5.0 °F 58% 30.38 in 10.0 mi Calm Calm - N/A   Clear
11:35 AM 17.6 °F - 6.8 °F 63% 30.37 in 10.0 mi Calm Calm - N/A   Clear
11:55 AM 19.4 °F - 6.8 °F 58% 30.37 in 10.0 mi Calm Calm - N/A   Clear
12:15 PM 19.4 °F - 8.6 °F 63% 30.36 in 10.0 mi Calm Calm - N/A   Clear
12:35 PM 21.2 °F - 8.6 °F 58% 30.34 in 10.0 mi Calm Calm - N/A   Clear
12:55 PM 23.0 °F - 8.6 °F 54% 30.33 in 10.0 mi Calm Calm - N/A   Clear
1:15 PM 23.0 °F - 10.4 °F 59% 30.32 in 10.0 mi Calm Calm - N/A   Clear
1:35 PM 24.8 °F - 10.4 °F 54% 30.30 in 10.0 mi Calm Calm - N/A   Clear
1:55 PM 26.6 °F 21.2 °F 12.2 °F 55% 30.29 in 10.0 mi ENE 4.6 mph - N/A   Clear
2:15 PM 28.4 °F 23.3 °F 12.2 °F 51% 30.28 in 10.0 mi ENE 4.6 mph - N/A   Clear
2:35 PM 28.4 °F 21.2 °F 12.2 °F 51% 30.27 in 10.0 mi East 6.9 mph - N/A   Clear
2:55 PM 28.4 °F 21.2 °F 12.2 °F 51% 30.26 in 10.0 mi ENE 6.9 mph - N/A   Clear
3:15 PM 28.4 °F 23.3 °F 14.0 °F 55% 30.25 in 10.0 mi East 4.6 mph - N/A   Clear
3:35 PM 28.4 °F 22.2 °F 14.0 °F 55% 30.26 in 10.0 mi East 5.8 mph - N/A   Clear
3:55 PM 28.4 °F 22.2 °F 14.0 °F 55% 30.26 in 10.0 mi East 5.8 mph - N/A   Clear
4:15 PM 28.4 °F 24.6 °F 14.0 °F 55% 30.25 in 10.0 mi ENE 3.5 mph - N/A   Clear
4:35 PM 28.4 °F 22.2 °F 14.0 °F 55% 30.26 in 10.0 mi East 5.8 mph - N/A   Clear
4:55 PM 28.4 °F 20.4 °F 14.0 °F 55% 30.25 in 10.0 mi ENE 8.1 mph - N/A   Clear
5:15 PM 28.4 °F 22.2 °F 14.0 °F 55% 30.25 in 10.0 mi East 5.8 mph - N/A   Clear
5:35 PM 28.4 °F 23.3 °F 14.0 °F 55% 30.25 in 10.0 mi East 4.6 mph - N/A   Clear
5:55 PM 26.6 °F 21.2 °F 14.0 °F 59% 30.24 in 10.0 mi East 4.6 mph - N/A   Clear
6:15 PM 26.6 °F 20.0 °F 14.0 °F 59% 30.23 in 10.0 mi East 5.8 mph - N/A   Clear
6:35 PM 26.6 °F 18.2 °F 14.0 °F 59% 30.22 in 10.0 mi East 8.1 mph - N/A   Clear
6:55 PM 26.6 °F 21.2 °F 14.0 °F 59% 30.21 in 10.0 mi East 4.6 mph - N/A   Clear
7:15 PM 24.8 °F 19.1 °F 14.0 °F 64% 30.21 in 10.0 mi East 4.6 mph - N/A   Clear
7:35 PM 24.8 °F 14.0 °F 14.0 °F 64% 30.19 in 10.0 mi East 11.5 mph 16.1 mph N/A   Clear
7:55 PM 24.8 °F 14.0 °F 15.8 °F 69% 30.19 in 10.0 mi East 11.5 mph 16.1 mph N/A   Clear
8:15 PM 23.0 °F 12.4 °F 15.8 °F 74% 30.19 in 10.0 mi East 10.4 mph 18.4 mph N/A   Scattered Clouds
8:35 PM 23.0 °F 13.1 °F 15.8 °F 74% 30.19 in 10.0 mi East 9.2 mph - N/A   Mostly Cloudy
8:55 PM 23.0 °F 13.9 °F 15.8 °F 74% 30.18 in 10.0 mi East 8.1 mph - N/A   Overcast
9:15 PM 23.0 °F 13.1 °F 17.6 °F 80% 30.17 in 10.0 mi East 9.2 mph - N/A   Overcast
9:35 PM 23.0 °F 11.7 °F 17.6 °F 80% 30.16 in 10.0 mi East 11.5 mph 19.6 mph N/A   Overcast
9:55 PM 23.0 °F 11.7 °F 19.4 °F 86% 30.15 in 10.0 mi East 11.5 mph - N/A   Overcast
10:15 PM 21.2 °F 8.3 °F 17.6 °F 86% 30.15 in 10.0 mi East 13.8 mph 24.2 mph N/A   Overcast
10:35 PM 21.2 °F 7.3 °F 17.6 °F 86% 30.13 in 10.0 mi East 16.1 mph 20.7 mph N/A   Overcast
10:55 PM 21.2 °F 6.8 °F 17.6 °F 86% 30.12 in 10.0 mi East 17.3 mph 24.2 mph N/A   Overcast
11:15 PM 21.2 °F 7.8 °F 17.6 °F 86% 30.11 in 10.0 mi East 15.0 mph 19.6 mph N/A   Overcast
11:35 PM 21.2 °F 10.1 °F 17.6 °F 86% 30.11 in 10.0 mi East 10.4 mph 18.4 mph N/A   Overcast
11:55 PM 21.2 °F 7.8 °F 17.6 °F 86% 30.12 in 10.0 mi ESE 15.0 mph 20.7 mph N/A   Overcast